Погода в Червоне Дибровке

Россия / Белгородская область     50°31′33″N   37°17′03″E
В апреле 2022 года жителям России запретили посещать сайт meteo.paraplan.net по решению Генеральной прокуратуры. Аудитория сайта уменьшилась в 10 раз. Владельцы сайта не видят смысла в поддержке погодного сервера в таких условиях. Сайт будет закрыт в октябре.
темп.,
°C
ветер,
м/с
пор.,
м/с
влажн.,
%
обл.,
%
осадки,
мм/ч
давл.,
гПа
погр.,
м
29 сентября, чт
чт2900:00+12зсз22905 0.0 100520
03:00+11з12905 0.0 100611
06:00+10зюз22915 0.0 100824
09:00+14з238213 0.0 1010233
12:00+17зюз336957 0.0 1011479
15:00+19зюз2359100 0.0 1012967
18:00+16ююз1171100 0.0 101313
21:00+15вюв2274100 0.0 101415
30 сентября, пт
пт3000:00+14вюв3577100 0.0 101479
03:00+14юв3581100 0.0 101590
06:00+13ююв348699 0.0 101655
09:00+16юв357683 0.0 1016154
12:00+21ю5856100 0.0 1016644
15:00+23ююз5747100 0.0 10161764
18:00+17зюз4787100 1.8 1017252
21:00+17вюв368686 4.3 1017148
1 октября, сб
сб100:00+15ю2392100 0.1 101762
03:00+14юз2397100 0.1 101780
06:00+14ююз229761 0.0 101825
09:00+16ююз2389100 0.0 1018212
12:00+20зюз3372100 0.0 1018633
15:00+22юз346095 0.0 1017940
18:00+19ююз2271100 0.0 101618
21:00+17ююз3474100 0.0 101556
2 октября, вс
вс200:00+17ююз337835 0.0 101452
03:00+15ююз338526 0.5 101354
06:00+14ююз228780 0.1 101312
09:00+17ю2377100 0.1 1012143
12:00+20ю3465100 0.0 1011447
15:00+23ююв345598 0.0 1009850
18:00+20юв3667100 0.0 100886
21:00+18юв41176100 0.8 1007260
3 октября, пн
пн300:00+17юв41181100 0.8 1005254
03:00+17вюв41082100 2.6 1003248
06:00+17юв81576100 0.5 998664
09:00+16юв9168799 2.9 996835
12:00+16юв101884100 0.9 9931284
15:00+12ю121982100 1.5 9951122
18:00+11ююз111682100 0.1 10001323
21:00+11ююз91584100 0.4 10031371